�������l�o���
Date,Time,MP-1(��Sv/h),MP-2(��Sv/h),MP-3(��Sv/h),MP-4(��Sv/h),MP-5(��Sv/h),MP-6(��Sv/h),MP-7(��Sv/h),����,����(m/s),���J
2017/03/19,00:00,0.386,0.234,0.395,0.366,0.332,0.193,0.164,��,5.3,��
2017/03/19,00:10,0.388,0.234,0.397,0.366,0.334,0.193,0.164,��,4.2,��
2017/03/19,00:20,0.386,0.234,0.397,0.366,0.335,0.194,0.164,��쐼,4.6,��
2017/03/19,00:30,0.385,0.234,0.395,0.366,0.334,0.193,0.163,�쐼,4.1,��
2017/03/19,00:40,0.386,0.235,0.398,0.366,0.332,0.193,0.164,�쐼,4.8,��
2017/03/19,00:50,0.389,0.235,0.397,0.366,0.335,0.193,0.165,��쐼,4.4,��
2017/03/19,01:00,0.386,0.235,0.396,0.366,0.334,0.193,0.164,�쐼,3.9,��
2017/03/19,01:10,0.386,0.235,0.396,0.367,0.332,0.194,0.164,�쐼,5.3,��
2017/03/19,01:20,0.387,0.235,0.395,0.367,0.333,0.193,0.165,���쐼,5.3,��
2017/03/19,01:30,0.386,0.236,0.396,0.366,0.334,0.193,0.164,�쐼,4.5,��
2017/03/19,01:40,0.385,0.234,0.396,0.366,0.334,0.193,0.164,�쐼,6.4,��
2017/03/19,01:50,0.387,0.235,0.397,0.367,0.334,0.194,0.165,���쐼,4.5,��
2017/03/19,02:00,0.389,0.234,0.397,0.367,0.333,0.194,0.164,�쐼,5.3,��
2017/03/19,02:10,0.385,0.234,0.398,0.366,0.334,0.193,0.165,�쐼,6.7,��
2017/03/19,02:20,0.386,0.236,0.396,0.367,0.333,0.194,0.165,���쐼,6.8,��
2017/03/19,02:30,0.386,0.235,0.397,0.366,0.332,0.195,0.164,��,6.4,��
2017/03/19,02:40,0.387,0.234,0.395,0.366,0.334,0.194,0.164,���쐼,3.6,��
2017/03/19,02:50,0.386,0.235,0.395,0.365,0.334,0.193,0.164,��쐼,2.2,��
2017/03/19,03:00,0.387,0.234,0.396,0.365,0.333,0.194,0.164,���쐼,2.2,��
2017/03/19,03:10,0.386,0.234,0.396,0.366,0.332,0.193,0.164,�쐼,1.8,��
2017/03/19,03:20,0.386,0.234,0.396,0.366,0.334,0.194,0.163,�k��,1.7,��
2017/03/19,03:30,0.384,0.236,0.396,0.368,0.333,0.193,0.165,�k��,7.3,�L
2017/03/19,03:40,0.387,0.236,0.396,0.366,0.333,0.193,0.165,�k��,5.3,�L
2017/03/19,03:50,0.386,0.235,0.396,0.366,0.335,0.193,0.165,���k��,5.2,�L
2017/03/19,04:00,0.387,0.235,0.397,0.366,0.334,0.193,0.164,��,4.8,�L
2017/03/19,04:10,0.386,0.235,0.396,0.366,0.333,0.193,0.165,��,3.7,��
2017/03/19,04:20,0.388,0.235,0.397,0.366,0.335,0.194,0.163,��,3.2,��
2017/03/19,04:30,0.386,0.234,0.397,0.367,0.334,0.192,0.164,���쐼,4.0,��
2017/03/19,04:40,0.386,0.234,0.396,0.367,0.332,0.192,0.164,���쐼,5.5,��
2017/03/19,04:50,0.389,0.235,0.395,0.365,0.333,0.193,0.164,���쐼,4.9,��
2017/03/19,05:00,0.387,0.235,0.397,0.366,0.334,0.193,0.164,��,4.5,��
2017/03/19,05:10,0.385,0.235,0.396,0.366,0.333,0.192,0.164,���쐼,4.3,��
2017/03/19,05:20,0.386,0.235,0.396,0.364,0.332,0.194,0.165,��,3.6,��
2017/03/19,05:30,0.388,0.233,0.395,0.366,0.335,0.193,0.164,���k��,2.2,��
2017/03/19,05:40,0.386,0.234,0.398,0.366,0.334,0.194,0.163,�k�k��,2.2,��
2017/03/19,05:50,0.387,0.235,0.397,0.366,0.334,0.194,0.164,�k�k��,2.0,��
2017/03/19,06:00,0.388,0.235,0.395,0.365,0.332,0.194,0.165,�k,1.8,��
2017/03/19,06:10,0.388,0.234,0.397,0.366,0.334,0.194,0.163,�k,3.1,��
2017/03/19,06:20,0.386,0.235,0.398,0.366,0.333,0.193,0.164,�k�k��,2.5,��
2017/03/19,06:30,0.387,0.234,0.397,0.366,0.332,0.194,0.164,�k,2.3,��
2017/03/19,06:40,0.388,0.234,0.397,0.365,0.334,0.194,0.164,�k��,2.0,��
2017/03/19,06:50,0.387,0.235,0.397,0.366,0.333,0.193,0.164,�k��,2.2,��
2017/03/19,07:00,0.385,0.234,0.396,0.366,0.333,0.194,0.164,���k��,1.2,��
2017/03/19,07:10,0.387,0.234,0.396,0.367,0.333,0.192,0.164,��,1.5,��
2017/03/19,07:20,0.388,0.234,0.397,0.365,0.333,0.192,0.164,��,2.6,��
2017/03/19,07:30,0.388,0.234,0.398,0.366,0.334,0.193,0.164,���k��,2.2,��
2017/03/19,07:40,0.387,0.235,0.396,0.366,0.333,0.194,0.164,���k��,1.9,��
2017/03/19,07:50,0.388,0.235,0.396,0.366,0.334,0.193,0.164,���k��,2.4,��
2017/03/19,08:00,0.387,0.234,0.394,0.366,0.334,0.193,0.163,�k�k��,1.4,��
2017/03/19,08:10,0.386,0.235,0.397,0.364,0.331,0.193,0.164,�k��,0.6,��
2017/03/19,08:20,0.388,0.234,0.396,0.366,0.334,0.193,0.163,�k��,1.6,��
2017/03/19,08:30,0.387,0.234,0.397,0.365,0.332,0.194,0.163,���k��,2.5,��
2017/03/19,08:40,0.386,0.235,0.397,0.365,0.332,0.193,0.163,�k��,4.5,��
2017/03/19,08:50,0.388,0.234,0.396,0.367,0.335,0.193,0.163,�k��,4.8,��
2017/03/19,09:00,0.385,0.234,0.396,0.364,0.331,0.194,0.164,�k��,3.9,��
2017/03/19,09:10,0.386,0.234,0.397,0.366,0.332,0.193,0.164,�k��,3.9,��
2017/03/19,09:20,0.386,0.234,0.395,0.365,0.332,0.193,0.164,�k��,4.0,��
2017/03/19,09:30,0.385,0.233,0.396,0.365,0.332,0.192,0.164,�k��,3.5,��
2017/03/19,09:40,0.386,0.234,0.396,0.366,0.334,0.193,0.164,�k��,3.0,��
2017/03/19,09:50,0.386,0.233,0.395,0.365,0.333,0.193,0.164,�k��,3.8,��
2017/03/19,10:00,0.385,0.234,0.395,0.367,0.333,0.193,0.164,�k��,3.1,��
2017/03/19,10:10,0.387,0.235,0.395,0.363,0.334,0.193,0.165,���k��,2.8,��
2017/03/19,10:20,0.384,0.234,0.395,0.364,0.332,0.193,0.164,���k��,2.4,��
2017/03/19,10:30,0.387,0.235,0.397,0.365,0.333,0.193,0.163,���k��,1.7,��
2017/03/19,10:40,0.386,0.234,0.395,0.366,0.332,0.193,0.163,���k��,2.0,��
2017/03/19,10:50,0.386,0.233,0.395,0.366,0.331,0.192,0.164,�k��,2.7,��
2017/03/19,11:00,0.387,0.234,0.394,0.366,0.334,0.193,0.165,�k��,3.1,��
2017/03/19,11:10,0.384,0.235,0.394,0.368,0.332,0.192,0.164,�k��,2.5,��
2017/03/19,11:20,0.386,0.236,0.397,0.364,0.333,0.194,0.164,�k��,3.1,��
2017/03/19,11:30,0.385,0.234,0.393,0.366,0.333,0.192,0.163,���k��,2.7,��
2017/03/19,11:40,0.386,0.234,0.397,0.363,0.332,0.192,0.164,���k��,3.0,��
2017/03/19,11:50,0.386,0.234,0.393,0.365,0.333,0.192,0.164,���k��,1.7,��
2017/03/19,12:00,0.384,0.234,0.397,0.366,0.333,0.193,0.164,���k��,1.9,�L
2017/03/19,12:10,0.388,0.234,0.394,0.365,0.334,0.193,0.164,��,1.1,��
2017/03/19,12:20,0.385,0.234,0.395,0.367,0.332,0.192,0.165,-,CALM,��
2017/03/19,12:30,0.387,0.233,0.397,0.366,0.332,0.193,0.164,��,1.1,�L
2017/03/19,12:40,0.385,0.232,0.397,0.366,0.335,0.193,0.165,��,1.5,�L
2017/03/19,12:50,0.386,0.235,0.398,0.368,0.334,0.194,0.165,���k��,2.2,�L
2017/03/19,13:00,0.388,0.235,0.397,0.365,0.334,0.194,0.164,���쓌,1.9,�L
2017/03/19,13:10,0.384,0.233,0.395,0.368,0.333,0.193,0.165,��,1.9,��
2017/03/19,13:20,0.388,0.235,0.398,0.366,0.333,0.193,0.163,�쓌,1.5,��
2017/03/19,13:30,0.386,0.235,0.394,0.367,0.334,0.192,0.163,���쓌,1.7,��
2017/03/19,13:40,0.386,0.235,0.396,0.367,0.330,0.193,0.165,�쓌,0.9,��
2017/03/19,13:50,0.386,0.234,0.395,0.365,0.333,0.192,0.164,��,1.3,��
2017/03/19,14:00,0.385,0.234,0.395,0.367,0.334,0.192,0.164,�쓌,1.6,��
2017/03/19,14:10,0.387,0.234,0.397,0.366,0.334,0.193,0.163,���쓌,1.1,��
2017/03/19,14:20,0.386,0.233,0.396,0.366,0.333,0.193,0.164,���쓌,1.4,�L
2017/03/19,14:30,0.387,0.234,0.396,0.368,0.332,0.192,0.165,���쓌,1.4,�L
2017/03/19,14:40,0.385,0.235,0.397,0.366,0.333,0.194,0.164,��,1.4,�L
2017/03/19,14:50,0.385,0.234,0.396,0.367,0.333,0.191,0.165,��,2.0,�L
2017/03/19,15:00,0.386,0.235,0.398,0.367,0.334,0.193,0.165,��,2.5,�L
2017/03/19,15:10,0.384,0.235,0.395,0.366,0.332,0.193,0.164,��,2.2,��
2017/03/19,15:20,0.387,0.233,0.398,0.370,0.333,0.190,0.163,���쓌,2.0,��
2017/03/19,15:30,0.385,0.234,0.395,0.366,0.335,0.192,0.165,�쓌,1.1,��
2017/03/19,15:40,0.386,0.235,0.395,0.368,0.332,0.192,0.164,�쓌,1.4,��
2017/03/19,15:50,0.387,0.234,0.398,0.366,0.335,0.194,0.164,��쓌,2.7,��
2017/03/19,16:00,0.385,0.236,0.395,0.366,0.333,0.192,0.164,�쓌,1.4,�L
2017/03/19,16:10,0.386,0.234,0.396,0.369,0.332,0.192,0.165,��쓌,0.8,�L
2017/03/19,16:20,0.386,0.234,0.396,0.366,0.335,0.193,0.165,��쓌,2.3,�L
2017/03/19,16:30,0.386,0.235,0.396,0.367,0.333,0.193,0.164,��쓌,1.7,��
2017/03/19,16:40,0.386,0.234,0.396,0.368,0.333,0.193,0.165,��,0.7,��
2017/03/19,16:50,0.386,0.235,0.397,0.367,0.334,0.193,0.164,��,1.0,��
2017/03/19,17:00,0.388,0.235,0.396,0.367,0.332,0.193,0.163,��쐼,1.4,��
2017/03/19,17:10,0.386,0.234,0.397,0.368,0.334,0.193,0.165,�쐼,1.1,��
2017/03/19,17:20,0.384,0.234,0.398,0.366,0.333,0.193,0.164,-,CALM,��
2017/03/19,17:30,0.389,0.235,0.395,0.369,0.333,0.192,0.163,�k��,1.0,��
2017/03/19,17:40,0.387,0.234,0.397,0.368,0.334,0.193,0.164,���k��,1.9,��
2017/03/19,17:50,0.386,0.235,0.397,0.367,0.334,0.194,0.164,�k��,3.1,��
2017/03/19,18:00,0.389,0.234,0.396,0.367,0.333,0.193,0.165,�k��,4.4,��
2017/03/19,18:10,0.387,0.234,0.397,0.369,0.334,0.192,0.164,�k��,4.8,��
2017/03/19,18:20,0.386,0.234,0.398,0.367,0.334,0.193,0.165,�k�k��,4.2,��
2017/03/19,18:30,0.389,0.235,0.395,0.368,0.334,0.193,0.165,�k�k��,3.9,��
2017/03/19,18:40,0.386,0.233,0.398,0.367,0.334,0.193,0.164,�k�k��,5.8,��
2017/03/19,18:50,0.386,0.234,0.398,0.366,0.334,0.193,0.164,�k�k��,6.2,��
2017/03/19,19:00,0.386,0.234,0.397,0.368,0.332,0.193,0.164,�k�k��,6.4,��
2017/03/19,19:10,0.387,0.234,0.397,0.368,0.334,0.193,0.165,�k�k��,6.6,��
2017/03/19,19:20,0.386,0.234,0.397,0.367,0.334,0.194,0.164,�k��,6.8,��
2017/03/19,19:30,0.387,0.234,0.398,0.367,0.334,0.192,0.165,�k��,2.5,��
2017/03/19,19:40,0.390,0.234,0.397,0.366,0.333,0.195,0.164,�k��,3.1,��
2017/03/19,19:50,0.387,0.236,0.397,0.368,0.333,0.193,0.164,�k��,4.1,��
2017/03/19,20:00,0.386,0.235,0.398,0.366,0.333,0.194,0.164,�k��,4.0,��
2017/03/19,20:10,0.387,0.234,0.398,0.366,0.333,0.194,0.164,�k��,4.1,��
2017/03/19,20:20,0.387,0.234,0.397,0.368,0.333,0.195,0.163,�k��,3.6,��
2017/03/19,20:30,0.387,0.234,0.396,0.367,0.333,0.194,0.164,�k��,2.7,��
2017/03/19,20:40,0.387,0.234,0.398,0.367,0.332,0.192,0.164,���k��,2.0,��
2017/03/19,20:50,0.388,0.234,0.397,0.367,0.333,0.194,0.164,�k��,2.0,��
2017/03/19,21:00,0.386,0.235,0.398,0.367,0.333,0.193,0.164,���k��,2.9,��
2017/03/19,21:10,0.388,0.235,0.399,0.366,0.334,0.194,0.164,���k��,2.2,��
2017/03/19,21:20,0.387,0.234,0.397,0.366,0.334,0.193,0.164,��,2.0,��
2017/03/19,21:30,0.387,0.234,0.398,0.365,0.333,0.194,0.166,���쐼,4.1,��
2017/03/19,21:40,0.387,0.234,0.398,0.367,0.333,0.192,0.164,�쐼,4.7,��
2017/03/19,21:50,0.387,0.234,0.398,0.368,0.333,0.194,0.165,�쐼,3.8,��
2017/03/19,22:00,0.387,0.234,0.397,0.367,0.333,0.194,0.165,���쐼,2.8,��
2017/03/19,22:10,0.388,0.234,0.398,0.366,0.334,0.195,0.165,���k��,2.5,��
2017/03/19,22:20,0.388,0.235,0.398,0.368,0.333,0.194,0.165,���k��,2.2,��
2017/03/19,22:30,0.387,0.234,0.399,0.366,0.334,0.193,0.165,���k��,3.8,��
2017/03/19,22:40,0.388,0.237,0.397,0.367,0.334,0.194,0.165,���k��,5.4,��
2017/03/19,22:50,0.388,0.234,0.397,0.365,0.333,0.194,0.164,��,6.4,��
2017/03/19,23:00,0.389,0.235,0.400,0.367,0.333,0.194,0.165,��,4.1,��
2017/03/19,23:10,0.388,0.234,0.397,0.368,0.332,0.193,0.165,���k��,3.8,��
2017/03/19,23:20,0.387,0.234,0.399,0.368,0.333,0.194,0.164,��,4.5,��
2017/03/19,23:30,0.386,0.235,0.396,0.366,0.333,0.192,0.164,���k��,4.3,��
2017/03/19,23:40,0.387,0.234,0.399,0.367,0.334,0.194,0.165,���k��,4.2,��
2017/03/19,23:50,0.388,0.236,0.399,0.366,0.334,0.193,0.164,���k��,3.9,��
